Wind_Speed
34 33 34 35 34 35 35 32 35 37 33 35 35 37 39 39 37 39 38 38 37 38 40 44 45 45 45 47 48 49 50 53 54 56 59 63 67 69 72 73 75 76 77
33 33 33 34 35 34 37 36 35 31 34 35 35 37 39 39 40 41 41 41 40 41 42 44 44 45 48 49 52 54 57 59 61 62 65 68 73 74 76 76 78 79 81
35 36 33 29 29 31 32 31 28 28 32 36 38 37 39 40 39 40 41 42 42 43 44 45 46 47 49 50 51 55 56 61 65 67 67 68 70 72 77 80 84 86 88
36 37 31 28 29 28 27 27 27 26 27 29 30 33 38 42 42 43 44 46 46 47 48 48 50 50 50 52 56 59 62 64 67 71 75 76 76 78 75 81 87 90 93
38 36 28 30 32 31 29 27 26 26 26 28 30 31 34 35 38 41 43 45 47 49 49 52 54 55 56 58 60 63 65 67 70 72 76 80 84 87 87 84 90 93 95
39 32 29 31 30 31 30 30 29 29 30 32 34 35 37 39 41 43 45 47 50 52 54 55 57 59 62 64 66 69 71 73 75 77 79 82 86 88 89 86 86 89 95
37 33 31 31 32 31 32 32 33 34 35 38 39 41 43 46 48 50 52 54 56 59 61 61 63 65 67 69 71 74 76 78 80 81 83 85 87 88 92 95 95 95 99
37 33 32 34 36 36 35 37 37 37 39 43 45 47 49 51 53 56 58 61 62 64 65 67 69 70 72 72 75 78 81 81 82 83 83 86 92 97 99 104 107 102 100
36 35 34 35 38 38 37 39 40 41 44 47 49 51 54 58 60 63 65 66 68 70 71 73 74 75 77 77 80 82 83 82 83 86 91 94 96 102 109 110 110 111 105
37 36 36 35 37 36 37 39 41 46 48 50 53 57 60 63 66 68 71 74 75 75 77 78 80 80 80 83 82 83 83 84 88 92 95 101 106 107 106 108 113 118 123
38 37 37 37 37 38 40 43 46 49 52 54 58 62 65 69 71 74 77 79 79 80 82 83 82 83 86 86 84 85 86 89 93 98 102 105 103 104 110 114 118 124 131
40 40 41 40 40 43 45 48 51 55 57 60 64 67 71 74 78 79 81 82 83 84 84 84 85 87 89 88 88 88 90 95 99 105 102 102 106 112 116 120 125 131 135
44 43 44 44 45 48 50 53 57 61 63 65 69 72 76 80 82 83 84 85 86 86 86 86 89 90 91 90 91 92 96 103 103 102 104 109 114 118 123 128 133 134 134
46 47 49 50 52 53 56 60 64 67 69 71 74 78 82 85 86 86 87 87 87 87 89 90 91 92 93 92 94 99 101 100 102 107 113 118 123 127 131 134 136 132 124
50 52 52 54 56 60 64 67 69 71 73 76 80 83 87 90 89 89 88 88 88 90 91 91 93 94 94 98 100 98 98 103 108 114 121 126 131 134 137 137 127 117 112
54 55 58 60 63 67 70 72 73 75 79 82 85 89 91 91 90 89 88 88 91 92 92 92 91 97 99 98 96 100 103 110 117 122 128 132 136 138 133 121 115 113 110
59 60 62 65 69 72 74 75 78 81 84 86 90 92 91 89 88 88 89 90 92 91 90 94 97 95 93 97 101 106 112 118 125 130 133 136 135 126 115 112 110 108 105
65 67 69 71 73 74 77 80 83 86 88 92 92 89 87 87 87 88 89 88 88 92 95 94 91 93 98 102 108 114 120 125 131 136 137 130 120 115 111 106 101 96 93
67 69 71 72 75 79 82 85 88 90 92 88 84 83 83 85 84 86 88 91 93 94 90 91 95 98 103 109 114 120 125 130 135 136 130 120 114 109 105 96 87 85 84
68 71 74 77 80 83 86 88 87 83 80 81 80 80 81 83 85 88 90 92 90 88 94 96 100 106 110 116 122 127 131 132 130 125 117 114 108 102 94 86 81 77 75
73 76 79 82 84 84 82 79 76 75 76 77 77 80 83 84 86 89 90 87 90 95 99 103 108 113 118 124 129 134 134 128 117 111 106 103 98 91 85 81 75 70 67
77 79 81 83 78 76 72 72 72 73 74 74 78 81 82 86 88 85 86 92 96 101 107 110 114 120 125 131 134 133 126 117 108 102 99 93 88 84 78 73 69 65 60
78 75 72 69 67 68 69 70 70 71 73 76 80 84 85 80 81 86 91 98 104 108 112 117 121 125 130 133 131 122 115 107 101 97 91 86 80 74 71 67 63 58 53
65 61 62 65 64 65 66 69 70 72 76 81 82 75 77 82 87 93 99 104 110 113 119 123 127 130 131 127 120 111 103 98 93 89 85 78 73 67 64 60 56 51 45
58 58 57 60 62 66 67 69 73 77 78 73 72 77 82 87 94 100 106 111 117 121 124 128 131 128 122 116 107 101 94 88 85 80 75 70 66 60 56 52 47 43 37
53 55 60 64 66 67 70 74 77 71 69 73 77 82 88 95 101 106 112 120 123 127 131 133 127 119 113 104 98 93 89 83 79 74 69 64 59 55 50 45 41 35 32
Wind_Direction
246 249 251 253 257 261 266 268 281 279 268 273 276 276 280 285 287 288 294 294 293 295 295 293 292 289 287 286 284 282 280 279 278 276 277 277 278 279 279 280 281 281 282
241 244 244 251 257 262 267 268 278 275 268 275 279 283 283 285 291 293 296 297 295 295 297 298 296 294 290 288 286 284 283 283 282 280 279 278 281 281 281 282 281 280 280
236 239 239 248 257 260 263 267 278 283 276 275 283 287 283 288 293 297 296 295 294 294 294 294 295 295 293 290 289 288 287 286 286 284 281 280 281 280 283 285 285 286 286
232 235 240 247 254 259 265 271 275 280 284 288 293 295 290 287 289 291 292 292 295 293 292 292 291 289 289 289 288 287 287 286 286 286 287 285 282 279 277 281 283 284 286
231 233 243 252 258 261 266 272 275 280 282 285 292 296 296 296 295 293 293 293 293 294 292 292 293 292 291 290 289 288 289 290 289 286 286 286 286 285 284 280 280 283 283
229 236 243 254 260 264 269 273 279 286 293 299 301 304 305 303 300 299 298 296 296 295 296 295 295 295 295 294 294 294 293 293 292 290 288 287 286 285 285 286 286 284 283
231 235 244 255 261 264 271 278 285 289 294 296 300 301 302 304 305 305 305 304 303 302 302 301 301 299 298 298 296 296 296 295 293 291 291 292 291 291 289 288 286 285 284
229 236 246 253 263 268 274 281 287 291 295 297 300 302 303 303 303 305 305 306 305 304 303 302 302 302 301 299 298 298 297 295 293 293 294 293 293 292 292 290 288 286 287
233 241 250 256 263 272 277 280 288 294 296 297 300 303 305 304 304 304 304 305 305 304 303 302 302 303 301 300 300 299 298 296 295 294 294 295 295 293 291 291 292 291 288
237 244 250 259 265 272 279 284 291 295 296 298 301 304 305 306 306 305 304 305 305 304 303 304 304 302 301 301 299 298 296 296 295 296 296 294 293 293 293 293 293 293 295
238 244 252 258 267 274 281 287 291 295 298 299 301 303 304 306 307 307 306 305 305 304 303 303 302 302 301 300 298 298 298 298 297 296 296 296 295 294 294 294 294 294 295
240 246 253 261 269 277 281 286 291 296 298 298 301 304 305 307 307 307 306 304 303 302 302 301 301 301 299 298 298 299 298 298 298 297 297 295 294 295 296 296 296 297 298
242 250 258 266 272 276 281 285 290 295 298 299 301 303 305 306 306 305 304 303 302 302 301 301 300 300 300 300 299 299 300 299 298 297 296 297 297 297 298 299 300 301 303
247 253 259 265 271 277 281 286 292 294 296 299 300 302 303 304 304 303 302 302 302 301 300 300 300 300 299 300 301 301 300 299 299 299 299 299 299 300 301 303 304 305 303
249 254 260 267 272 279 284 288 290 292 295 298 299 300 303 303 302 302 301 301 301 301 300 299 299 300 302 302 301 300 301 300 300 300 301 302 303 304 306 307 306 305 305
256 262 266 272 277 281 286 288 290 293 295 297 299 300 301 300 301 301 300 301 301 300 300 300 301 302 302 302 303 302 302 302 302 302 303 304 306 308 309 309 309 308 306
260 265 270 275 280 283 285 288 290 292 295 296 298 299 299 299 300 300 300 300 300 300 300 301 302 302 303 304 304 304 305 305 305 305 306 308 310 309 309 310 310 308 307
265 268 272 276 279 281 284 288 291 293 295 297 297 298 297 297 299 300 300 300 301 300 302 303 303 305 304 306 306 307 307 307 308 308 309 311 310 310 310 310 309 307 306
269 272 275 277 281 284 287 289 291 293 294 294 294 295 298 299 299 299 300 301 302 304 303 305 305 305 307 308 307 309 310 310 309 310 312 311 311 310 309 310 309 308 307
271 274 277 280 282 285 287 289 292 291 292 292 294 296 297 297 298 301 302 303 303 303 304 304 307 309 309 310 311 311 309 309 311 314 312 311 311 311 311 311 310 309 308
272 275 278 281 283 286 287 287 289 288 292 295 296 296 297 299 301 301 303 302 303 304 306 308 309 310 312 313 312 311 311 313 314 312 310 311 312 312 312 312 311 310 311
274 277 280 282 283 284 286 286 290 292 293 294 296 298 300 301 301 301 302 303 305 307 309 309 311 313 314 314 311 312 314 314 314 313 312 312 313 313 313 312 312 313 314
276 278 279 281 282 283 287 290 291 292 293 296 300 301 300 301 301 302 304 306 308 309 310 312 314 314 315 312 313 314 315 314 314 314 314 314 314 314 313 314 314 315 317
273 275 277 279 284 287 288 289 292 294 298 299 299 300 300 301 303 305 306 308 309 310 313 314 315 315 313 313 314 315 314 314 315 315 315 316 315 315 315 315 315 318 317
274 277 279 283 285 287 288 292 295 297 299 298 298 299 302 304 305 307 308 309 311 312 313 314 315 313 312 313 315 314 314 317 316 316 316 316 317 317 316 317 318 318 321
275 277 280 282 285 289 292 294 297 296 296 298 300 302 304 306 307 308 310 311 313 314 314 315 313 313 314 315 316 317 318 319 317 318 318 319 319 319 321 321 320 322 322
Height
10723 10726 10729 10731 10732 10733 10733 10734 10733 10730 10729 10729 10727 10725 10723 10721 10719 10715 10712 10709 10705 10702 10699 10696 10693 10691 10688 10685 10683 10680 10676 10673 10673 10670 10666 10662 10655 10652 10646 10643 10638 10632 10626
10716 10720 10723 10724 10725 10725 10726 10726 10726 10723 10723 10721 10720 10717 10716 10714 10711 10708 10704 10701 10697 10693 10691 10688 10683 10680 10677 10674 10671 10668 10664 10659 10657 10655 10652 10649 10639 10634 10629 10624 10618 10612 10607
10710 10714 10717 10718 10718 10718 10718 10719 10718 10717 10715 10714 10711 10709 10708 10706 10703 10700 10697 10693 10689 10686 10682 10678 10674 10670 10666 10663 10659 10655 10652 10646 10640 10636 10636 10634 10629 10624 10612 10604 10595 10591 10584
10704 10707 10710 10710 10711 10712 10712 10712 10711 10710 10708 10707 10704 10701 10699 10697 10694 10691 10687 10684 10680 10676 10672 10667 10663 10659 10655 10650 10646 10642 10637 10632 10625 10618 10611 10608 10607 10604 10609 10595 10579 10570 10562
10698 10701 10702 10703 10704 10705 10705 10705 10704 10703 10701 10699 10696 10694 10691 10688 10685 10682 10678 10674 10669 10663 10661 10656 10651 10646 10642 10636 10630 10624 10619 10614 10608 10600 10593 10585 10576 10568 10568 10577 10563 10552 10539
10691 10693 10695 10696 10697 10697 10698 10698 10697 10695 10693 10690 10688 10685 10682 10679 10676 10672 10668 10664 10659 10653 10648 10644 10638 10632 10626 10620 10613 10606 10599 10592 10584 10576 10569 10561 10553 10545 10537 10535 10533 10529 10517
10684 10685 10687 10689 10689 10690 10690 10690 10688 10687 10684 10682 10678 10675 10672 10668 10664 10660 10656 10651 10646 10640 10634 10628 10622 10616 10609 10601 10594 10586 10578 10571 10561 10552 10544 10534 10523 10514 10505 10497 10499 10496 10491
10676 10678 10680 10681 10682 10682 10682 10682 10680 10678 10675 10672 10668 10665 10661 10657 10653 10648 10643 10637 10631 10625 10619 10611 10605 10598 10591 10583 10574 10565 10556 10547 10536 10528 10519 10510 10497 10487 10476 10463 10450 10458 10457
10668 10671 10673 10673 10674 10674 10674 10673 10671 10669 10665 10662 10658 10654 10650 10646 10640 10634 10628 10623 10616 10609 10602 10594 10586 10578 10570 10562 10554 10544 10534 10525 10515 10506 10495 10484 10472 10460 10442 10428 10414 10400 10414
10661 10663 10665 10666 10666 10666 10665 10664 10662 10658 10655 10651 10647 10643 10638 10633 10626 10619 10613 10606 10599 10591 10583 10574 10566 10558 10550 10541 10532 10522 10512 10503 10492 10482 10472 10458 10442 10430 10415 10401 10387 10368 10350
10653 10656 10656 10657 10658 10657 10655 10653 10650 10647 10644 10640 10636 10630 10625 10618 10611 10604 10596 10588 10580 10572 10564 10555 10546 10537 10528 10518 10509 10499 10490 10481 10469 10455 10444 10431 10415 10403 10389 10374 10359 10342 10321
10646 10647 10648 10649 10649 10648 10645 10643 10640 10636 10633 10628 10622 10616 10610 10603 10596 10588 10579 10571 10562 10553 10545 10536 10526 10516 10506 10496 10488 10479 10467 10456 10444 10430 10416 10402 10389 10374 10358 10343 10328 10309 10289
10636 10639 10639 10640 10639 10637 10635 10632 10628 10624 10620 10615 10609 10602 10596 10588 10580 10571 10562 10553 10544 10535 10526 10516 10506 10495 10485 10475 10466 10456 10445 10430 10416 10402 10390 10375 10358 10345 10327 10310 10291 10271 10251
10629 10630 10630 10631 10629 10626 10624 10620 10616 10611 10606 10601 10595 10588 10580 10572 10563 10554 10544 10535 10526 10516 10506 10495 10485 10474 10463 10453 10444 10434 10421 10404 10389 10374 10358 10342 10324 10309 10291 10272 10250 10228 10205
10620 10620 10621 10620 10618 10615 10611 10608 10603 10597 10593 10586 10579 10572 10564 10555 10546 10536 10527 10517 10507 10496 10485 10474 10463 10452 10441 10431 10420 10407 10396 10379 10365 10347 10329 10310 10291 10270 10247 10226 10208 10184 10162
10609 10610 10609 10608 10605 10602 10598 10594 10588 10583 10577 10570 10563 10556 10546 10536 10528 10519 10508 10498 10487 10475 10464 10454 10444 10433 10418 10406 10395 10382 10369 10351 10334 10318 10299 10277 10254 10232 10209 10188 10167 10143 10124
10597 10597 10596 10595 10592 10588 10584 10579 10573 10567 10561 10555 10547 10537 10527 10517 10509 10500 10490 10479 10467 10456 10445 10434 10422 10410 10397 10384 10370 10356 10341 10322 10302 10281 10262 10243 10218 10194 10176 10160 10141 10117 10095
10586 10585 10584 10582 10579 10574 10569 10564 10557 10551 10545 10537 10528 10519 10509 10500 10491 10480 10470 10459 10449 10437 10426 10413 10401 10390 10374 10361 10345 10329 10312 10292 10268 10246 10225 10206 10186 10164 10146 10135 10119 10096 10076
10573 10571 10569 10566 10563 10559 10553 10547 10541 10535 10526 10518 10510 10501 10493 10484 10472 10461 10451 10440 10429 10416 10404 10392 10380 10368 10353 10336 10318 10301 10284 10261 10237 10214 10189 10168 10152 10137 10121 10109 10095 10077 10058
10560 10559 10556 10552 10547 10543 10538 10530 10525 10517 10510 10502 10494 10486 10475 10465 10454 10444 10432 10421 10410 10397 10386 10373 10358 10343 10327 10308 10290 10268 10248 10232 10212 10186 10160 10137 10122 10108 10094 10082 10071 10057 10040
10548 10545 10541 10536 10531 10526 10520 10513 10507 10501 10494 10486 10477 10468 10459 10449 10438 10425 10414 10402 10391 10377 10364 10352 10335 10317 10300 10281 10258 10234 10213 10194 10180 10159 10138 10117 10101 10086 10073 10058 10047 10036 10024
10532 10529 10524 10519 10514 10510 10504 10498 10493 10486 10478 10470 10462 10452 10441 10431 10420 10408 10395 10381 10369 10356 10340 10325 10311 10292 10272 10249 10227 10204 10183 10162 10146 10130 10111 10096 10081 10067 10052 10039 10027 10017 10007
10516 10511 10508 10503 10499 10495 10489 10484 10478 10470 10463 10455 10445 10435 10423 10412 10401 10390 10377 10361 10347 10331 10315 10300 10285 10268 10244 10219 10195 10176 10157 10137 10120 10102 10087 10073 10061 10048 10033 10023 10011 10001 9994
10502 10498 10494 10489 10487 10482 10476 10470 10463 10456 10448 10439 10429 10418 10407 10396 10383 10369 10354 10340 10323 10307 10291 10275 10257 10238 10213 10190 10171 10153 10134 10118 10101 10083 10066 10053 10041 10031 10018 10007 9998 9989 9982
10489 10485 10481 10476 10473 10467 10462 10456 10448 10441 10431 10421 10412 10402 10391 10379 10364 10348 10331 10315 10298 10281 10266 10247 10228 10208 10187 10166 10148 10128 10111 10099 10082 10066 10051 10038 10026 10016 10006 9996 9988 9979 9972
10475 10472 10468 10463 10458 10453 10448 10441 10433 10424 10415 10406 10396 10385 10372 10358 10343 10329 10312 10289 10272 10253 10232 10212 10192 10178 10158 10143 10126 10105 10087 10076 10060 10047 10035 10024 10012 10002 9993 9985 9977 9970 9964